[[{"header":{"parameterUnit":"m.s-1","parameterCategory":1,"la1":30.2991,"la2":30.254,"lo1":-89.0895,"lo2":-89.0444,"dy":0.0017,"dx":0.0017,"nx":28,"ny":28,"refTime":"2026-01-05T09:00:00:Z","depth":0,"parameterNumber":2,"parameterNumberName":"U-component_of_WINDS"},"data":[0,0,0,0,0,0,0,0,0,0,0,0,0,0,0,0,0,0,0,0,0,0,0,0,0,0,0,0,0,0,0,0,0,0,0,0,0,0,0,0,0,0,0,0,0,0,0,0,0,0,0,0,0,0,0,0,0,0,-0.1172,-0.117,0,-0.0996,-0.0994,-0.0992,-0.0958,-0.096,-0.0961,-0.0962,-0.0779,-0.0773,-0.0767,0,0,0,0,0,0,0,0,0,0,0,0,0,-0.1476,-0.1471,-0.1172,-0.117,-0.1167,-0.0996,-0.0994,-0.0991,-0.0958,-0.096,-0.0961,-0.0963,-0.0781,-0.0774,-0.0766,0,0,0,0,0,0,0,0,0,0,0,0,0,-0.1326,-0.1469,-0.1172,-0.113,-0.1125,-0.0997,-0.0994,-0.0991,-0.0958,-0.096,-0.0962,-0.0964,-0.0784,-0.0775,-0.0765,-0.0665,0,0,-0.0737,-0.0733,0,0,0,0,0,0,0,0,-0.1335,-0.1315,-0.1139,-0.1133,-0.1127,-0.1001,-0.1034,-0.0881,-0.0957,-0.1021,-0.0962,-0.0965,-0.0851,-0.0836,-0.0799,-0.0657,-0.0649,-0.0736,-0.073,-0.0726,-0.0724,0,0,0,0,0,0,0,-0.1345,-0.1323,-0.1102,-0.1136,-0.1129,-0.1119,-0.11,-0.1005,-0.0926,-0.1016,-0.1013,-0.0993,-0.0848,-0.0808,-0.0794,-0.0646,-0.0736,-0.0728,-0.0722,-0.0719,-0.0411,-0.0409,0,0,0,0,0,0,-0.1364,-0.1331,-0.1108,-0.1097,-0.1238,-0.1112,-0.1091,-0.1039,-0.0927,-0.0912,-0.0991,-0.0992,-0.0822,-0.0805,-0.0787,-0.066,-0.0727,-0.0718,-0.0713,-0.0414,-0.0411,-0.0408,0,0,0,0,0,0,-0.137,-0.1344,-0.1115,-0.1213,-0.1183,-0.1105,-0.1047,-0.1035,-0.0994,-0.0909,-0.0894,-0.0964,-0.0823,-0.0801,-0.0696,-0.0654,-0.0714,-0.0705,-0.0417,-0.0413,-0.0409,-0.0407,0,0,0,0,0,0,-0.1379,-0.1347,-0.1309,-0.1213,-0.1178,-0.1027,-0.1044,-0.103,-0.0978,-0.0978,-0.0879,-0.0865,-0.0823,-0.071,-0.0686,-0.0642,-0.0698,-0.042,-0.0415,-0.041,-0.0411,-0.0404,-0.0398,0,0,0,0,0,-0.139,-0.1315,-0.1307,-0.128,-0.1129,-0.1025,-0.1005,-0.0959,-0.0975,-0.0935,-0.0881,-0.0868,-0.0663,-0.0699,-0.0673,-0.0625,-0.0423,-0.0417,-0.0411,-0.0414,-0.0405,-0.0398,0,0,0,0,0,0,-0.1407,-0.1302,-0.1291,-0.1183,-0.1113,-0.1019,-0.0967,-0.0952,-0.0875,-0.0877,-0.0823,-0.0801,-0.0699,-0.0652,-0.0694,-0.0521,-0.0544,-0.0532,-0.0555,-0.0546,-0.054,-0.0552,-0.069,0,0,0,0,0,-0.1399,-0.1323,-0.1235,-0.1148,-0.1113,-0.1047,-0.0999,-0.097,-0.0895,-0.0865,-0.0802,-0.0729,-0.0648,-0.0595,-0.0516,-0.0405,-0.0382,-0.0359,-0.0353,-0.0348,-0.0338,-0.0273,-0.0261,-0.0389,-0.0389,-0.0389,0,0,-0.1379,-0.1312,-0.1268,-0.115,-0.1092,-0.1013,-0.1022,-0.0939,-0.088,-0.0852,-0.0748,-0.07,-0.0615,-0.0506,-0.0455,-0.0464,-0.0298,-0.0341,-0.0338,-0.0329,-0.0266,-0.0254,-0.0243,-0.0385,-0.0385,-0.0386,0,0,-0.1303,-0.1247,-0.1166,-0.1109,-0.1021,-0.0978,-0.0959,-0.0867,-0.0833,-0.0729,-0.0706,-0.0635,-0.0497,-0.0436,-0.0387,-0.0288,-0.0273,-0.0264,-0.023,-0.0167,-0.0157,-0.0148,-0.0109,-0.0097,-0.0255,-0.0255,-0.0255,0,-0.129,-0.1172,-0.1127,-0.1044,-0.0992,-0.0965,-0.0882,-0.0828,-0.0719,-0.0683,-0.0695,-0.052,-0.0461,-0.0336,-0.0312,-0.0275,-0.0249,-0.0273,-0.0163,-0.0153,-0.0143,-0.0106,-0.0092,-0.0254,-0.0254,-0.0254,-0.0255,0,-0.1158,-0.1076,-0.1022,-0.0918,-0.086,-0.0778,-0.0719,-0.0666,-0.0642,-0.0597,-0.049,-0.0418,-0.0323,-0.0292,-0.0268,-0.0163,-0.0171,-0.0174,-0.0194,-0.0131,-0.0095,-0.0081,-0.0253,-0.0253,-0.0254,-0.0254,0,0,-0.1085,-0.0958,-0.0938,-0.0889,-0.0791,-0.0727,-0.0643,-0.0551,-0.0504,-0.0431,-0.0357,-0.0241,-0.0243,-0.0187,-0.0157,-0.0103,-0.0025,-0.0111,-0.0109,-0.0095,0.0099,0.0103,0.0118,-0.0016,-0.0014,-0.0011,0.0093,0,-0.0995,-0.0844,-0.0802,-0.0675,-0.0597,-0.0571,-0.0498,-0.0429,-0.0385,-0.0312,-0.0263,-0.018,-0.019,-0.0156,-0.0102,-0.0046,0.0015,-0.0054,0.0055,0.0059,0.0037,0.0137,0.0142,0.0236,0.0107,0.0109,0.0111,0,-0.0868,-0.0792,-0.0657,-0.0567,-0.0533,-0.0468,-0.0379,-0.0311,-0.0232,-0.0203,-0.0142,-0.0116,-0.0026,-0.0055,0.0071,0.0024,0.007,0.0104,0.0109,0.0124,0.0091,0.0159,0.0267,0.0283,0.0133,0.0131,0.0129,0,-0.0824,-0.0688,-0.0589,-0.0549,-0.0443,-0.0397,-0.0351,-0.0274,-0.0221,-0.0143,-0.0107,-0.0021,0.0028,0.0095,0.0145,0.0118,0.0267,0.0242,0.0296,0.0295,0.033,0.0328,0.0451,0.0353,0.0353,0.0352,0.0352,0,-0.0725,-0.0643,-0.0567,-0.0506,-0.0412,-0.0365,-0.0273,-0.0225,-0.0157,-0.0085,-0.0059,0.0009,0.0068,0.0144,0.0182,0.0283,0.0303,0.0331,0.0341,0.0331,0.0328,0.0365,0.0361,0.0356,0.0355,0.0355,0.0354,0,-0.0658,-0.0605,-0.0495,-0.0404,-0.0379,-0.0313,-0.0235,-0.0173,-0.0129,-0.0038,-0.0014,0.0056,0.0147,0.0201,0.0316,0.0342,0.0454,0.0459,0.0427,0.0433,0.0485,0.0481,0.0641,0.0666,0.0546,0.0547,0.0548,0,-0.0597,-0.0532,-0.0434,-0.0384,-0.0337,-0.0258,-0.0203,-0.0154,-0.0098,-0.0003,0.0048,0.0139,0.0216,0.0359,0.0422,0.051,0.052,0.057,0.0534,0.0522,0.0525,0.0523,0.0531,0.0577,0.0578,0.0579,0.058,0,-0.0491,-0.0468,-0.0391,-0.0303,-0.0239,-0.0168,-0.0097,-0.0058,0.0003,0.0065,0.0158,0.0217,0.0334,0.0426,0.0519,0.0568,0.0586,0.059,0.0608,0.06,0.0581,0.0596,0.0448,0.0587,0.0586,0.0586,0.0585,0.0585,-0.0422,-0.0363,-0.0284,-0.0198,-0.014,-0.0075,-0.0012,0.004,0.0118,0.0217,0.0241,0.0339,0.0417,0.0544,0.0595,0.0673,0.0666,0.0691,0.0698,0.0704,0.0708,0.0564,0.069,0.0689,0.0689,0.0689,0.0689,0,-0.0312,-0.0261,-0.0183,-0.0084,-0.0016,-0.0008,0.007,0.0127,0.0213,0.0284,0.0359,0.0466,0.0555,0.0624,0.0715,0.0765,0.0776,0.0788,0.0787,0.0799,0.0707,0.0684,0.0778,0.0778,0.0778,0.0778,0.0778,0.0778,-0.0247,-0.0145,-0.0113,0.0019,0.007,0.0166,0.0211,0.0272,0.0329,0.0448,0.0522,0.0565,0.0636,0.0733,0.0816,0.0834,0.0868,0.088,0.09,0.0814,0.0805,0.0796,0.0775,0.0886,0.0886,0.0986,0.0987,0.0987]},{"header":{"parameterUnit":"m.s-1","parameterCategory":1,"la1":30.2991,"la2":30.254,"lo1":-89.0895,"lo2":-89.0444,"dy":0.0017,"dx":0.0017,"nx":28,"ny":28,"refTime":"2026-01-05T09:00:00:Z","depth":0,"parameterNumber":3,"parameterNumberName":"V-component_of_WINDS"},"data":[0,0,0,0,0,0,0,0,0,0,0,0,0,0,0,0,0,0,0,0,0,0,0,0,0,0,0,0,0,0,0,0,0,0,0,0,0,0,0,0,0,0,0,0,0,0,0,0,0,0,0,0,0,0,0,0,0,0,3.4863,3.4864,0,3.4938,3.4938,3.4939,3.4917,3.4915,3.4914,3.4912,3.4985,3.4988,3.4991,0,0,0,0,0,0,0,0,0,0,0,0,0,3.4695,3.4698,3.4863,3.4864,3.4865,3.4938,3.4939,3.494,3.4917,3.4915,3.4913,3.4912,3.4984,3.4988,3.4992,0,0,0,0,0,0,0,0,0,0,0,0,0,3.4768,3.4699,3.4863,3.4862,3.4863,3.4937,3.4939,3.494,3.4918,3.4915,3.4913,3.4911,3.4982,3.4987,3.4992,3.507,0,0,3.5008,3.501,0,0,0,0,0,0,0,0,3.4764,3.4775,3.4861,3.4863,3.4864,3.4916,3.4906,3.4983,3.4918,3.4897,3.4912,3.491,3.4963,3.497,3.4989,3.5073,3.5076,3.5008,3.5011,3.5013,3.5015,0,0,0,0,0,0,0,3.4759,3.4771,3.4892,3.4863,3.4864,3.4857,3.4865,3.492,3.4942,3.4898,3.4897,3.4906,3.4963,3.4984,3.499,3.5077,3.5008,3.5012,3.5015,3.5017,3.5228,3.523,0,0,0,0,0,0,3.4754,3.4767,3.489,3.4895,3.4807,3.4862,3.487,3.4901,3.4941,3.4945,3.4908,3.4905,3.4976,3.4984,3.4993,3.5087,3.5013,3.5018,3.5021,3.5225,3.5229,3.5231,0,0,0,0,0,0,3.4751,3.4765,3.4887,3.4831,3.4845,3.4867,3.4902,3.4904,3.4925,3.4949,3.4952,3.4926,3.4975,3.4986,3.5051,3.5089,3.502,3.5025,3.5222,3.5226,3.523,3.5275,0,0,0,0,0,0,3.4746,3.4764,3.4796,3.4831,3.4849,3.4946,3.4904,3.4907,3.4934,3.493,3.4966,3.497,3.4974,3.5044,3.5056,3.5095,3.5029,3.5219,3.5224,3.5229,3.527,3.528,3.5288,0,0,0,0,0,3.474,3.4805,3.4797,3.4812,3.4888,3.4948,3.4958,3.4962,3.4937,3.4968,3.4983,3.4969,3.5082,3.505,3.5064,3.5105,3.5217,3.5223,3.5228,3.5266,3.5278,3.5288,0,0,0,0,0,0,3.4772,3.4809,3.4802,3.488,3.4911,3.4944,3.4984,3.4975,3.5013,3.5008,3.501,3.5018,3.5085,3.5101,3.5065,3.5181,3.5145,3.5154,3.517,3.5181,3.519,3.5185,3.5033,0,0,0,0,0,3.4788,3.4835,3.4864,3.493,3.4946,3.4962,3.4988,3.4989,3.5021,3.5034,3.5054,3.5084,3.5126,3.5154,3.5194,3.5271,3.5279,3.5306,3.5315,3.5322,3.533,3.5372,3.5384,3.525,3.525,3.525,0,0,3.4822,3.4848,3.4877,3.4937,3.4962,3.5009,3.4974,3.5025,3.5059,3.5041,3.5105,3.512,3.5153,3.5225,3.5257,3.524,3.5368,3.5329,3.5335,3.5339,3.5379,3.5392,3.5403,3.5254,3.5253,3.5253,0,0,3.4908,3.4932,3.4991,3.5015,3.5053,3.5062,3.5076,3.511,3.512,3.5184,3.5171,3.521,3.5283,3.5308,3.533,3.5422,3.5411,3.5435,3.5483,3.5523,3.5534,3.5543,3.5577,3.5589,3.5443,3.5443,3.5443,0,3.4945,3.5018,3.5021,3.5074,3.51,3.5086,3.5144,3.5167,3.5215,3.5232,3.5212,3.5303,3.5324,3.5401,3.5424,3.5442,3.5457,3.5432,3.5532,3.5542,3.5551,3.5583,3.5595,3.5446,3.5445,3.5445,3.5445,0,3.5062,3.5112,3.5153,3.5202,3.5232,3.5287,3.5297,3.5327,3.5324,3.5335,3.5399,3.5424,3.5469,3.5487,3.5484,3.5563,3.5551,3.5532,3.5496,3.5566,3.5597,3.5609,3.545,3.5449,3.5448,3.5447,0,0,3.5173,3.5221,3.5237,3.5258,3.5297,3.5335,3.5387,3.5433,3.5459,3.549,3.5535,3.5596,3.5578,3.5602,3.5601,3.5637,3.5709,3.5612,3.5613,3.5631,3.5798,3.5814,3.5828,3.57,3.5703,3.5704,3.5795,0,3.5264,3.536,3.5364,3.545,3.5496,3.5481,3.5527,3.5555,3.5566,3.5604,3.5615,3.5659,3.5631,3.5646,3.568,3.5693,3.5743,3.5686,3.5741,3.5743,3.5736,3.5844,3.5862,3.5947,3.5807,3.5809,3.5811,0,3.5384,3.5422,3.5514,3.5545,3.5564,3.5606,3.5647,3.5684,3.5714,3.5719,3.5746,3.5739,3.5791,3.5752,3.5823,3.5785,3.5806,3.5816,3.5819,3.5826,3.5783,3.5856,3.5974,3.5988,3.5829,3.5828,3.5826,0,3.5458,3.5531,3.5596,3.5614,3.5652,3.5681,3.5698,3.5726,3.5752,3.5786,3.5803,3.5843,3.5865,3.5894,3.5898,3.5869,3.597,3.593,3.5975,3.5975,3.5999,3.5998,3.6125,3.601,3.601,3.601,3.6009,0,3.5561,3.5618,3.563,3.567,3.5732,3.5733,3.5795,3.5808,3.5833,3.5874,3.5861,3.59,3.5901,3.5939,3.5942,3.6001,3.601,3.6015,3.6016,3.6018,3.6017,3.6034,3.6029,3.6013,3.6012,3.6012,3.6011,0,3.5656,3.5666,3.5735,3.5765,3.5773,3.5818,3.5843,3.588,3.5888,3.594,3.5952,3.5965,3.6009,3.6015,3.6066,3.6068,3.6139,3.6132,3.613,3.613,3.6174,3.6171,3.6318,3.6337,3.6208,3.6209,3.621,0,3.5723,3.5767,3.58,3.5828,3.5846,3.589,3.5917,3.5918,3.5946,3.5982,3.6015,3.6058,3.6093,3.6164,3.6178,3.6216,3.6211,3.626,3.6217,3.6218,3.6214,3.6212,3.6216,3.6269,3.627,3.6272,3.6272,0,3.584,3.5842,3.5882,3.5924,3.5956,3.5989,3.6019,3.6041,3.6046,3.6078,3.6124,3.6151,3.6203,3.6246,3.6284,3.6299,3.6287,3.6285,3.6298,3.6302,3.6299,3.6303,3.6155,3.6283,3.6282,3.6281,3.628,3.628,3.5924,3.5962,3.5992,3.6036,3.6059,3.6087,3.6123,3.6136,3.6175,3.6219,3.6216,3.6267,3.6293,3.6343,3.636,3.6398,3.6382,3.64,3.6405,3.641,3.6415,3.6291,3.6405,3.6404,3.6404,3.6404,3.6404,0,3.6042,3.606,3.6101,3.6144,3.6178,3.6163,3.6195,3.6225,3.627,3.6296,3.633,3.6382,3.6423,3.6438,3.6477,3.6505,3.65,3.6515,3.6515,3.6518,3.6427,3.6413,3.6519,3.6519,3.6519,3.6519,3.6519,3.6519,3.6108,3.6171,3.6176,3.625,3.6267,3.6317,3.6337,3.6362,3.6383,3.6442,3.6476,3.6486,3.6507,3.6547,3.6583,3.6586,3.6602,3.662,3.6621,3.6536,3.6525,3.6514,3.6501,3.6623,3.6623,3.671,3.671,3.6711]}]]